College Station, TX

6:12 PM CST on February 19, 2017 (GMT -0600)
Easterwood

Weather History for KCLL - April, 2014

Change the Weather History Date:

Sunday, April 13, 2014

  Actual Average Record
Temperature  
Mean Temperature 72 °F 68 °F  
Max Temperature 77 °F 78 °F 92 °F (1996)
Min Temperature 67 °F 57 °F 31 °F (1940)
Degree Days  
Heating Degree Days 0 2  
Month to date heating degree days 28 31  
Since 1 July heating degree days 2021 1590  
Cooling Degree Days 7 5  
Month to date cooling degree days 63 50  
Year to date cooling degree days 107 137  
Growing Degree Days 20 (Base 50)    
Moisture  
Dew Point 68 °F    
Average Humidity 86    
Maximum Humidity 93    
Minimum Humidity 79    
Precipitation  
Precipitation T in 0.07 in 3.30 in (1967)
Month to date precipitation 0.57 1.03  
Year to date precipitation 4.36 10.29  
Sea Level Pressure  
Sea Level Pressure 29.80 in    
Wind  
Wind Speed 12 mph (SSE)    
Max Wind Speed 24 mph    
Max Gust Speed 32 mph    
Visibility 9 miles    
Events Thunderstorm    
T = Trace of Precipitation, MM = Missing Value Source: NWS Daily Summary

Daily Weather History Graph

Daily Weather History Graph

Search for Another Location

Airport or City:

Trip Planner

Search our weather history database for the weather conditions in past years. The results will help you decide how hot, cold, wet, or windy it might be!

Date:

Astronomy

Apr. 13, 2014 Rise Set
Actual Time 7:00 AM CDT 7:52 PM CDT
Civil Twilight 6:35 AM CDT 8:16 PM CDT
Nautical Twilight 6:06 AM CDT 8:45 PM CDT
Astronomical Twilight 5:36 AM CDT 9:15 PM CDT
Moon 6:35 PM CDT (4/13) 5:52 AM CDT (4/13)
Length of Visible Light 13h 41m
Length of Day
12h 51m
Waxing Gibbous, 97% of the Moon is Illuminated
Apr 13
Waxing Gibbous
Apr 15
Full
Apr 22
Last Quarter
Apr 29
New
May 6
First Quarter

Hourly Weather History & Observations

Time (CDT) Temp. Dew Point Humidity Pressure Visibility Wind Dir Wind Speed Gust Speed Precip Events Conditions
12:01 AM 66.9 °F 62.1 °F 84% 29.89 in 10.0 mi South 15.0 mph 25.3 mph N/A   Mostly Cloudy
12:53 AM 66.9 °F 62.1 °F 84% 29.87 in 10.0 mi South 15.0 mph - N/A   Mostly Cloudy
1:53 AM 66.9 °F 62.1 °F 84% 29.87 in 10.0 mi South 13.8 mph - N/A   Overcast
2:53 AM 66.9 °F 63.0 °F 87% 29.85 in 10.0 mi South 8.1 mph - N/A   Mostly Cloudy
3:53 AM 68.0 °F 64.0 °F 87% 29.83 in 10.0 mi SSE 9.2 mph - N/A   Mostly Cloudy
4:53 AM 68.0 °F 64.9 °F 90% 29.83 in 10.0 mi South 9.2 mph - N/A   Overcast
5:06 AM 68.0 °F 64.9 °F 90% 29.83 in 10.0 mi SSE 8.1 mph - N/A   Overcast
5:53 AM 68.0 °F 66.0 °F 93% 29.83 in 10.0 mi SSE 5.8 mph - N/A   Overcast
6:43 AM 68.0 °F 66.0 °F 93% 29.84 in 9.0 mi SSE 6.9 mph - N/A   Overcast
6:53 AM 68.0 °F 66.0 °F 93% 29.82 in 9.0 mi SE 6.9 mph - N/A   Overcast
7:40 AM 69.1 °F 66.0 °F 90% 29.84 in 8.0 mi SE 4.6 mph - N/A   Overcast
7:53 AM 69.1 °F 66.9 °F 93% 29.83 in 8.0 mi SE 5.8 mph - N/A   Overcast
8:21 AM 69.1 °F 66.9 °F 93% 29.85 in 8.0 mi SE 6.9 mph - N/A   Overcast
8:53 AM 70.0 °F 66.9 °F 90% 29.84 in 8.0 mi SE 6.9 mph - N/A   Overcast
9:42 AM 72.0 °F 69.1 °F 91% 29.84 in 9.0 mi SSE 13.8 mph - N/A   Overcast
9:53 AM 72.0 °F 69.1 °F 91% 29.83 in 9.0 mi SSE 12.7 mph - N/A   Overcast
10:13 AM 73.0 °F 69.1 °F 87% 29.84 in 9.0 mi South 15.0 mph - N/A   Overcast
10:45 AM 73.9 °F 69.1 °F 85% 29.85 in 8.0 mi SSE 13.8 mph - N/A   Overcast
10:53 AM 73.9 °F 69.1 °F 85% 29.83 in 8.0 mi South 16.1 mph 21.9 mph N/A   Overcast
11:53 AM 75.9 °F 69.1 °F 79% 29.81 in 7.0 mi South 17.3 mph 24.2 mph N/A   Mostly Cloudy
12:20 PM 75.9 °F 68.0 °F 76% 29.82 in 8.0 mi South 15.0 mph - N/A   Mostly Cloudy
12:53 PM 75.0 °F 69.1 °F 82% 29.82 in 9.0 mi South 9.2 mph - N/A   Overcast
1:36 PM 75.0 °F 70.0 °F 84% 29.81 in 10.0 mi South 11.5 mph - 0.00 in   Overcast
1:53 PM 75.0 °F 70.0 °F 84% 29.80 in 10.0 mi South 11.5 mph - 0.00 in   Overcast
2:30 PM 75.0 °F 70.0 °F 84% 29.80 in 10.0 mi South 13.8 mph - N/A   Mostly Cloudy
2:53 PM 75.9 °F 70.0 °F 82% 29.78 in 10.0 mi South 13.8 mph 19.6 mph N/A   Mostly Cloudy
3:53 PM 75.9 °F 70.0 °F 82% 29.76 in 10.0 mi South 13.8 mph 20.7 mph N/A   Scattered Clouds
4:53 PM 75.9 °F 69.1 °F 79% 29.70 in 10.0 mi SSE 19.6 mph 25.3 mph N/A   Mostly Cloudy
5:53 PM 75.0 °F 68.0 °F 79% 29.65 in 10.0 mi SSE 20.7 mph - N/A   Scattered Clouds
6:53 PM 73.4 °F 68.0 °F 83% 29.67 in 10.0 mi SSE 17.3 mph 28.8 mph N/A   Clear
7:27 PM 73.9 °F 68.0 °F 82% 29.68 in 10.0 mi South 16.1 mph 25.3 mph N/A   Mostly Cloudy
7:53 PM 73.9 °F 68.0 °F 82% 29.69 in 10.0 mi South 13.8 mph - N/A   Overcast
8:53 PM 73.9 °F 69.1 °F 85% 29.70 in 10.0 mi South 9.2 mph - N/A   Overcast
9:53 PM 73.9 °F 69.1 °F 85% 29.72 in 10.0 mi South 10.4 mph - N/A   Overcast
10:53 PM 73.9 °F 70.0 °F 87% 29.72 in 10.0 mi South 15.0 mph - N/A   Overcast
11:35 PM 73.9 °F 70.0 °F 87% 29.77 in 9.0 mi WNW 9.2 mph 19.6 mph N/A Thunderstorm Overcast
11:53 PM 73.9 °F 70.0 °F 87% 29.75 in 9.0 mi SW 11.5 mph - N/A Thunderstorm Thunderstorm